[[{"header":{"parameterUnit":"m.s-1","parameterCategory":1,"la1":30.2991,"la2":30.254,"lo1":-89.0895,"lo2":-89.0444,"dy":0.0017,"dx":0.0017,"nx":28,"ny":28,"refTime":"2026-02-15T09:00:00:Z","depth":0,"parameterNumber":2,"parameterNumberName":"U-component_of_WINDS"},"data":[0,0,0,0,0,0,0,0,0,0,0,0,0,0,0,0,0,0,0,0,0,0,0,0,0,0,0,0,0,0,0,0,0,0,0,0,0,0,0,0,0,0,0,0,0,0,0,0,0,0,0,0,0,0,0,0,0,0,-2.5369,-2.5372,0,-2.5649,-2.5653,-2.5656,-2.5731,-2.5729,-2.5728,-2.5726,-2.602,-2.6029,-2.6039,0,0,0,0,0,0,0,0,0,0,0,0,0,-2.4906,-2.4914,-2.5369,-2.5372,-2.5376,-2.5649,-2.5653,-2.5657,-2.5731,-2.5729,-2.5727,-2.5725,-2.6017,-2.6028,-2.6039,0,0,0,0,0,0,0,0,0,0,0,0,0,-2.5139,-2.4917,-2.5368,-2.5446,-2.5456,-2.5648,-2.5653,-2.5658,-2.5732,-2.5729,-2.5727,-2.5724,-2.6013,-2.6027,-2.6041,-2.6178,0,0,-2.6084,-2.609,0,0,0,0,0,0,0,0,-2.5126,-2.5156,-2.5431,-2.5441,-2.5452,-2.5653,-2.5598,-2.5832,-2.5732,-2.5627,-2.5726,-2.5723,-2.59,-2.5924,-2.5982,-2.6192,-2.6205,-2.6085,-2.6094,-2.61,-2.6104,0,0,0,0,0,0,0,-2.511,-2.5144,-2.548,-2.5435,-2.5448,-2.5469,-2.55,-2.5642,-2.5775,-2.5636,-2.5642,-2.5674,-2.5906,-2.5968,-2.5989,-2.6209,-2.6085,-2.6097,-2.6106,-2.6112,-2.6549,-2.6552,0,0,0,0,0,0,-2.5079,-2.513,-2.5471,-2.5489,-2.5279,-2.548,-2.5514,-2.5591,-2.5773,-2.5799,-2.5676,-2.5677,-2.5945,-2.5973,-2.6,-2.6175,-2.61,-2.6113,-2.6121,-2.6546,-2.655,-2.6553,0,0,0,0,0,0,-2.5069,-2.5109,-2.546,-2.5311,-2.5358,-2.549,-2.5577,-2.5598,-2.566,-2.5803,-2.5828,-2.5715,-2.5944,-2.598,-2.6134,-2.6186,-2.6119,-2.6132,-2.6542,-2.6547,-2.6551,-2.6525,0,0,0,0,0,0,-2.5055,-2.5104,-2.5156,-2.5312,-2.5365,-2.5587,-2.558,-2.5605,-2.5684,-2.5687,-2.5846,-2.5871,-2.5945,-2.6112,-2.6148,-2.6205,-2.6143,-2.6538,-2.6544,-2.655,-2.6522,-2.6528,-2.6534,0,0,0,0,0,-2.5038,-2.5139,-2.5158,-2.5199,-2.5432,-2.5589,-2.562,-2.5702,-2.5687,-2.5742,-2.5834,-2.5865,-2.6174,-2.6127,-2.6168,-2.623,-2.6535,-2.6542,-2.6549,-2.6519,-2.6527,-2.6534,0,0,0,0,0,0,-2.4989,-2.5161,-2.5184,-2.5338,-2.5448,-2.5602,-2.5673,-2.5708,-2.5827,-2.5825,-2.5924,-2.5959,-2.6106,-2.6183,-2.6128,-2.6374,-2.6355,-2.6371,-2.6318,-2.6327,-2.6333,-2.6313,-2.6155,0,0,0,0,0,-2.4995,-2.5106,-2.5251,-2.5372,-2.5426,-2.554,-2.5611,-2.5664,-2.5784,-2.5832,-2.5935,-2.6052,-2.6176,-2.6255,-2.6376,-2.6532,-2.657,-2.6595,-2.6601,-2.6605,-2.6618,-2.6709,-2.6723,-2.6576,-2.6576,-2.6576,0,0,-2.5011,-2.5118,-2.5182,-2.5365,-2.5457,-2.5572,-2.5579,-2.57,-2.5788,-2.5851,-2.6003,-2.6082,-2.6219,-2.6375,-2.6448,-2.6443,-2.6667,-2.6614,-2.6616,-2.6628,-2.6718,-2.6732,-2.6744,-2.6581,-2.658,-2.658,0,0,-2.5098,-2.5189,-2.5301,-2.5393,-2.5531,-2.5606,-2.5632,-2.5781,-2.5836,-2.5988,-2.6039,-2.6145,-2.6355,-2.6452,-2.6528,-2.6651,-2.6686,-2.6688,-2.6721,-2.6808,-2.682,-2.683,-2.6877,-2.6893,-2.67,-2.67,-2.67,0,-2.5101,-2.5274,-2.5355,-2.5474,-2.5555,-2.5614,-2.573,-2.5816,-2.5988,-2.6043,-2.6033,-2.6299,-2.6395,-2.6576,-2.6606,-2.6664,-2.6701,-2.6672,-2.6811,-2.6822,-2.6834,-2.688,-2.6897,-2.67,-2.67,-2.67,-2.67,0,-2.5272,-2.5392,-2.5466,-2.5628,-2.5716,-2.5833,-2.5934,-2.6014,-2.6059,-2.6136,-2.6292,-2.6409,-2.6556,-2.6602,-2.6648,-2.679,-2.6783,-2.6791,-2.6775,-2.6846,-2.6891,-2.6909,-2.6699,-2.6699,-2.6699,-2.67,0,0,-2.5339,-2.5543,-2.5569,-2.5644,-2.5801,-2.5896,-2.6016,-2.6158,-2.6226,-2.6342,-2.6448,-2.6624,-2.6632,-2.6719,-2.6776,-2.6852,-2.6946,-2.6852,-2.6857,-2.6868,-2.7113,-2.7108,-2.7127,-2.6968,-2.6972,-2.6975,-2.7103,0,-2.5449,-2.5664,-2.574,-2.5919,-2.6032,-2.609,-2.6195,-2.6304,-2.6379,-2.6487,-2.6571,-2.6695,-2.6695,-2.6748,-2.6825,-2.6918,-2.6997,-2.691,-2.7072,-2.7076,-2.7038,-2.715,-2.7146,-2.7261,-2.712,-2.7123,-2.7126,0,-2.5607,-2.5722,-2.5911,-2.6055,-2.6105,-2.6198,-2.6335,-2.6437,-2.6562,-2.6611,-2.6707,-2.6759,-2.689,-2.6863,-2.7047,-2.6986,-2.7056,-2.7111,-2.7118,-2.7139,-2.7107,-2.7178,-2.7299,-2.7317,-2.7154,-2.7151,-2.7149,0,-2.564,-2.5844,-2.5984,-2.6046,-2.6215,-2.628,-2.6354,-2.6476,-2.6557,-2.6677,-2.6731,-2.6864,-2.6939,-2.7043,-2.713,-2.7102,-2.7307,-2.7287,-2.7355,-2.7353,-2.7398,-2.7395,-2.7536,-2.7437,-2.7437,-2.7437,-2.7436,0,-2.5757,-2.5872,-2.6001,-2.6088,-2.6218,-2.6305,-2.6433,-2.6511,-2.6619,-2.6724,-2.6782,-2.688,-2.6988,-2.71,-2.717,-2.7313,-2.7345,-2.7391,-2.7409,-2.7388,-2.7383,-2.7438,-2.7434,-2.7442,-2.7441,-2.744,-2.7439,0,-2.5819,-2.5909,-2.6067,-2.6213,-2.6253,-2.6343,-2.647,-2.6558,-2.6633,-2.6765,-2.6802,-2.6922,-2.7057,-2.7154,-2.7329,-2.7375,-2.7531,-2.7546,-2.7488,-2.7498,-2.7561,-2.7555,-2.7745,-2.7776,-2.7653,-2.7654,-2.7655,0,-2.5889,-2.5978,-2.6134,-2.6207,-2.628,-2.6397,-2.6479,-2.6568,-2.6652,-2.6801,-2.6871,-2.701,-2.7126,-2.734,-2.7445,-2.7579,-2.7601,-2.7658,-2.7622,-2.7598,-2.7606,-2.7601,-2.7612,-2.7665,-2.7665,-2.7666,-2.7667,0,-2.6006,-2.6046,-2.616,-2.6291,-2.6386,-2.6494,-2.6603,-2.666,-2.6769,-2.686,-2.6998,-2.7087,-2.7265,-2.7403,-2.7548,-2.7627,-2.7667,-2.7676,-2.77,-2.7682,-2.7645,-2.7669,-2.7506,-2.7673,-2.7672,-2.7672,-2.7671,-2.7671,-2.6077,-2.6159,-2.6281,-2.6407,-2.6498,-2.6598,-2.6688,-2.6774,-2.6889,-2.7039,-2.7085,-2.7229,-2.7353,-2.7551,-2.7632,-2.7748,-2.7745,-2.7778,-2.7787,-2.7795,-2.7796,-2.7623,-2.7774,-2.7774,-2.7774,-2.7774,-2.7774,0,-2.6199,-2.628,-2.6394,-2.6544,-2.6643,-2.6667,-2.6789,-2.6872,-2.6997,-2.7108,-2.722,-2.7379,-2.7514,-2.7628,-2.7767,-2.7838,-2.786,-2.7872,-2.787,-2.7888,-2.7788,-2.7756,-2.7852,-2.7852,-2.7852,-2.7852,-2.7852,-2.7852,-2.6275,-2.6416,-2.6471,-2.6658,-2.674,-2.6879,-2.6946,-2.704,-2.713,-2.7304,-2.7415,-2.7487,-2.7601,-2.7749,-2.7874,-2.7904,-2.7955,-2.7963,-2.7998,-2.7904,-2.7895,-2.7886,-2.7856,-2.7972,-2.7973,-2.8089,-2.809,-2.8091]},{"header":{"parameterUnit":"m.s-1","parameterCategory":1,"la1":30.2991,"la2":30.254,"lo1":-89.0895,"lo2":-89.0444,"dy":0.0017,"dx":0.0017,"nx":28,"ny":28,"refTime":"2026-02-15T09:00:00:Z","depth":0,"parameterNumber":3,"parameterNumberName":"V-component_of_WINDS"},"data":[0,0,0,0,0,0,0,0,0,0,0,0,0,0,0,0,0,0,0,0,0,0,0,0,0,0,0,0,0,0,0,0,0,0,0,0,0,0,0,0,0,0,0,0,0,0,0,0,0,0,0,0,0,0,0,0,0,0,0.3144,0.3141,0,0.2867,0.2864,0.2861,0.2739,0.2739,0.2739,0.274,0.2459,0.2451,0.2443,0,0,0,0,0,0,0,0,0,0,0,0,0,0.3569,0.3562,0.3144,0.3141,0.3137,0.2868,0.2864,0.286,0.2738,0.2739,0.2739,0.274,0.2461,0.2452,0.2443,0,0,0,0,0,0,0,0,0,0,0,0,0,0.3348,0.3559,0.3145,0.3044,0.3032,0.2868,0.2864,0.2859,0.2738,0.2739,0.2739,0.274,0.2464,0.2453,0.2441,0.2358,0,0,0.2406,0.24,0,0,0,0,0,0,0,0,0.336,0.3332,0.3062,0.3051,0.3037,0.2838,0.291,0.2691,0.2738,0.285,0.274,0.274,0.2585,0.2563,0.251,0.2345,0.2333,0.2404,0.2397,0.2392,0.2389,0,0,0,0,0,0,0,0.3376,0.3343,0.3034,0.3058,0.3043,0.3013,0.2982,0.2868,0.2718,0.284,0.2831,0.28,0.2578,0.2522,0.2502,0.2328,0.2405,0.2394,0.2387,0.2383,0.2079,0.2078,0,0,0,0,0,0,0.3407,0.3357,0.3043,0.3026,0.3203,0.3005,0.297,0.2901,0.2718,0.2691,0.2799,0.2795,0.2541,0.2516,0.2492,0.238,0.2392,0.2381,0.2375,0.208,0.2078,0.2077,0,0,0,0,0,0,0.3417,0.3381,0.3054,0.3189,0.3145,0.2997,0.292,0.2896,0.2839,0.2687,0.266,0.2769,0.2541,0.2509,0.2391,0.2369,0.2376,0.2365,0.2081,0.2079,0.2078,0.2157,0,0,0,0,0,0,0.343,0.3385,0.3351,0.3189,0.3138,0.2958,0.2919,0.289,0.2819,0.281,0.2652,0.2626,0.2539,0.241,0.238,0.2353,0.2356,0.2082,0.208,0.2078,0.2156,0.2159,0.2161,0,0,0,0,0,0.3445,0.3386,0.335,0.3313,0.3093,0.2957,0.2928,0.2828,0.2818,0.2782,0.2685,0.2631,0.2377,0.2399,0.2364,0.2333,0.2083,0.2081,0.2078,0.2155,0.2158,0.2161,0,0,0,0,0,0,0.355,0.3363,0.3321,0.3207,0.3099,0.2937,0.2889,0.2835,0.2728,0.2724,0.2605,0.257,0.2463,0.2386,0.2414,0.2242,0.2225,0.2216,0.2295,0.2297,0.23,0.232,0.2347,0,0,0,0,0,0.356,0.3465,0.3306,0.3221,0.3169,0.3039,0.2976,0.2908,0.2791,0.2745,0.2639,0.2528,0.2423,0.2356,0.2251,0.2145,0.2108,0.2107,0.2109,0.2112,0.2105,0.2041,0.2038,0.207,0.207,0.207,0,0,0.358,0.3465,0.3413,0.3239,0.3147,0.3051,0.3001,0.2902,0.2829,0.273,0.2612,0.2531,0.2399,0.2287,0.2232,0.222,0.2088,0.2109,0.2113,0.2103,0.2039,0.2036,0.2033,0.2068,0.2068,0.2069,0,0,0.3566,0.347,0.3387,0.3296,0.3157,0.3071,0.3051,0.2896,0.2838,0.2718,0.264,0.2553,0.2375,0.2283,0.2214,0.2164,0.2111,0.2134,0.2146,0.2086,0.2083,0.208,0.2061,0.2056,0.2128,0.2128,0.2128,0,0.3608,0.3459,0.3353,0.3256,0.3182,0.3086,0.3002,0.2918,0.2753,0.2704,0.2692,0.2465,0.237,0.2234,0.2222,0.2169,0.2143,0.2151,0.2092,0.2088,0.2084,0.2064,0.2057,0.2131,0.2131,0.2131,0.213,0,0.3516,0.3415,0.3365,0.3205,0.3125,0.3036,0.2916,0.2848,0.2787,0.2702,0.258,0.2463,0.2331,0.2294,0.2235,0.2149,0.2146,0.2115,0.2096,0.2086,0.2066,0.2057,0.2136,0.2135,0.2134,0.2133,0,0,0.3561,0.3342,0.3326,0.3251,0.309,0.301,0.2916,0.2786,0.2729,0.2619,0.2536,0.2387,0.2356,0.2278,0.2207,0.2154,0.212,0.2129,0.2124,0.213,0.2017,0.204,0.2033,0.2084,0.2082,0.2081,0.2027,0,0.3523,0.3349,0.325,0.3117,0.3021,0.2928,0.2846,0.2739,0.2657,0.2564,0.2474,0.2369,0.2338,0.229,0.2233,0.2136,0.2095,0.2139,0.2005,0.2002,0.2039,0.2022,0.2046,0.2001,0.2019,0.2017,0.2016,0,0.3456,0.3345,0.3202,0.305,0.3006,0.2934,0.2806,0.2718,0.2594,0.2539,0.245,0.2379,0.2276,0.2266,0.2122,0.2154,0.2094,0.2038,0.2034,0.2016,0.2008,0.2003,0.1985,0.1978,0.2003,0.2004,0.2005,0,0.35,0.3315,0.3205,0.3144,0.2965,0.2916,0.284,0.2716,0.2644,0.2533,0.2484,0.2364,0.2297,0.2206,0.2103,0.2106,0.1969,0.1951,0.1919,0.1922,0.1894,0.1896,0.1865,0.1858,0.1859,0.1859,0.1859,0,0.3468,0.3384,0.3222,0.3154,0.3057,0.2944,0.2851,0.2767,0.2658,0.2572,0.2486,0.2408,0.2278,0.2184,0.2104,0.1996,0.1968,0.1919,0.1898,0.1925,0.1932,0.1883,0.1883,0.1857,0.1857,0.1858,0.1858,0,0.35,0.3389,0.3262,0.3102,0.306,0.2995,0.2858,0.2789,0.2703,0.2595,0.2564,0.2428,0.2312,0.2202,0.2048,0.1994,0.1886,0.186,0.1927,0.1915,0.1889,0.1892,0.1823,0.1808,0.1815,0.1815,0.1815,0,0.3486,0.3419,0.3251,0.3186,0.3111,0.3009,0.2934,0.2821,0.2746,0.2599,0.2548,0.2425,0.2321,0.2141,0.2029,0.191,0.188,0.1864,0.1861,0.189,0.1877,0.1882,0.1874,0.1866,0.1867,0.1867,0.1867,0,0.3472,0.342,0.3315,0.319,0.3103,0.2999,0.2893,0.2846,0.2712,0.2633,0.2512,0.2432,0.2273,0.2152,0.2021,0.1942,0.1882,0.1869,0.1855,0.1881,0.1922,0.1897,0.1932,0.1871,0.187,0.187,0.187,0.187,0.3479,0.3414,0.3285,0.3171,0.3078,0.2981,0.2907,0.2811,0.2708,0.2569,0.2509,0.2387,0.2263,0.208,0.2002,0.1905,0.1891,0.1872,0.1866,0.1862,0.1867,0.1939,0.1881,0.1881,0.1881,0.188,0.188,0,0.3459,0.3371,0.3267,0.312,0.303,0.298,0.286,0.2788,0.2681,0.2571,0.2469,0.2331,0.2213,0.2092,0.1967,0.1913,0.1882,0.1884,0.1886,0.1868,0.1888,0.1911,0.191,0.191,0.191,0.191,0.191,0.191,0.3438,0.3324,0.3257,0.3097,0.3009,0.2888,0.2823,0.2733,0.2643,0.2492,0.2393,0.2314,0.2199,0.2065,0.1955,0.1922,0.1879,0.1889,0.1848,0.1869,0.1867,0.1865,0.1887,0.1881,0.1881,0.1836,0.1836,0.1835]}]]